Regional Weather Roundup
Issued by NWS Northern Indiana

Home | Current Version | Previous Version | Text Only | Print | Product List | Glossary On
Versions: 1 2 3 4 5 6 7 8 9 10 11 12 13 14 15 16 17 18 19 20 21 22 23 24 25 26 27 28 29 30 31 32 33 34 35 36 37 38 39 40 41 42 43 44 45 46 47 48 49 50
000
ASUS43 KIWX 061310
RWRIWX

KIWX WEATHER ROUNDUP
NATIONAL WEATHER SERVICE NORTHERN INDIANA
900 AM EDT FRI MAY 06 2016

NOTE: "FAIR" INDICATES FEW OR NO CLOUDS BELOW 12,000 FEET WITH NO
SIGNIFICANT WEATHER AND/OR OBSTRUCTIONS TO VISIBILITY.

* THESE STATIONS ARE NOT UNDER NWS QUALITY CONTROL. THEY ALSO MAY NOT
  REPORT WEATHER SUCH AS PRECIPITATION OR FOG.

INZ001>027-061400-
NORTHERN INDIANA

CITY           SKY/WX    TMP DP  RH WIND       PRES   REMARKS
GARY*          MOSUNNY   54  48  82 CALM      30.01S
VALPARAISO     SUNNY     52  42  69 W5        30.02R
MICHIGAN CITY* MOSUNNY   45  45 100 SW3       30.02R
LAPORTE*       SUNNY     51  47  84 W3        30.01S
KNOX*          SUNNY     45  37  76 CALM      30.01S
SOUTH BEND     SUNNY     47  43  86 CALM      30.01R
ELKHART*       SUNNY     48  45  87 CALM      30.01R
GOSHEN         SUNNY     49  41  74 NW3       30.01R
MONTICELLO*    SUNNY     51  40  65 CALM      30.02R
LOGANSPORT*    SUNNY     48  41  76 CALM      30.03R
ROCHESTER*     SUNNY     52  45  76 CALM      30.02R
WARSAW*        MOSUNNY   50  39  66 NW3       30.01R
ANGOLA*          N/A     50  39  66 N5        29.99R
FORT WAYNE     MOSUNNY   51  39  63 NW5       30.00R
HUNTINGTON*    SUNNY    N/A N/A N/A NW6       30.00R
PERU/GRISSOM   SUNNY     49  43  79 NW5       30.00R
MARION*        SUNNY     47  40  77 N6        30.01R

$$
INZ028>050-061400-
CENTRAL INDIANA

CITY           SKY/WX    TMP DP  RH WIND       PRES   REMARKS
LAFAYETTE      SUNNY     48  44  86 CALM      30.02S
KOKOMO*        SUNNY     52  39  62 NW6       30.01R
MUNCIE*        SUNNY     52  40  63 N6        30.00R
INDIANAPOLIS   MOSUNNY   53  40  61 NW7       30.01R

$$
MIZ043>046-050>051-056>058-064>065-071>073-077>080-061400-
SOUTHWEST LOWER MICHIGAN

CITY           SKY/WX    TMP DP  RH WIND       PRES   REMARKS
BATTLE CREEK   SUNNY     50  38  63 NW3       29.99R
BENTON HARBOR  MOSUNNY   48  43  82 CALM      30.00S
COLDWATER*     SUNNY     49  40  73 NW5       29.99R
HILLSDALE*     SUNNY     50  41  71 NW6       29.98R
HOLLAND        MOSUNNY  N/A N/A N/A SW5       29.99S
GRAND RAPIDS   MOSUNNY   50  39  66 W3        29.99R
KALAMAZOO      SUNNY     50  37  61 CALM      30.00R
STURGIS*       SUNNY     49  39  68 NW3       29.99R
THREE RIVERS*  FAIR      50  39  66 CALM      30.00S

$$
OHZ001>008-015>018-024>025-061400-
NORTHWEST OHIO

CITY           SKY/WX    TMP DP  RH WIND       PRES   REMARKS
WAUSEON*         N/A     54 N/A N/A N5        29.97R
DEFIANCE       SUNNY     53  43  68 NW5       29.98R
FINDLAY        SUNNY     58  36  43 N7        29.95R
TOLEDO EXPRESS SUNNY     56  41  57 NW5       29.97R
TOLEDO METCALF SUNNY     57  39  51 N6        29.97R
LIMA           SUNNY     54  44  69 N3        29.96R

$$
AND FOR LAKE MICHIGAN COASTAL AND OPEN LAKE BUOY OBSERVATIONS

STATION/POSITION TEMP    WIND        PRES    VSBY  WAVE
                 AIR SEA DIR/SP/G                  HT/PER
                 (F)     (DEG/KT/KT) (MB)    (MI)  (FT/S)
CALUMET HARBOR    49     200/  4/  5 1015.1R
MICHIGAN CITY     45     160/  3/  4   N/A
BURNS HARBOR      52     190/  4/  8 1016.6S
SAINT JOSEPH      49     160/  5/  7 1015.9S
SOUTH LAKE BUOY   44 40  190/  8/  8 1015.2S         1
4 MI NW BRIDGMAN  47 48                N/A           1/ 4

$$
&&




USA.gov is the U.S. government's official web portal to all federal, state and local government web resources and services.